Regional Weather Roundup
Issued by NWS

Home | Current Version | Previous Version | Graphics & Text | Print | Product List | Glossary On
Versions: 1 2 3 4 5 6 7 8 9 10 11 12 13 14 15 16 17 18 19 20 21 22 23 24 25 26 27 28 29 30 31 32 33 34 35 36 37 38 39 40 41 42 43 44 45 46 47 48 49
000
ASUS43 KMPX 211901
RWRMN
WEATHER ROUNDUP FOR MINNESOTA
NATIONAL WEATHER SERVICE TWIN CITIES/CHANHASSEN MN
100 PM CST TUE FEB 21 2017


NOTE: "FAIR" INDICATES FEW OR NO CLOUDS BELOW 12,000 FEET WITH NO
SIGNIFICANT WEATHER AND/OR OBSTRUCTIONS TO VISIBILITY. N/A MEANS
CURRENT SKY AND/OR WEATHER CONDITIONS ARE NOT AVAILABLE.

MNZ060>063-068>070-212000-
   Twin Cities Metro

CITY           SKY/WX    TMP DP  RH WIND       PRES   REMARKS
TWIN CITIES    MOSUNNY   58  37  45 S14       29.77F
ST PAUL        SUNNY     52  44  74 SE13      29.79F
CRYSTAL        SUNNY     57  34  41 S21G26    29.75F
BLAINE         MOSUNNY   55  41  58 SE10      29.76F
LAKEVILLE      MOSUNNY   55  43  62 S14G21    29.78F
EDEN PRAIRIE   CLOUDY    58  38  47 S17G24    29.75F
SOUTH ST PAUL  SUNNY     53  45  76 SE9       29.78F
LAKE ELMO      FAIR      52  43  71 S16       29.80F
$$
MNZ001>005-007-008-013>017-022>024-027-028-212000-
   Northwest Minnesota

CITY           SKY/WX    TMP DP  RH WIND       PRES   REMARKS
BEMIDJI        CLOUDY    44  35  70 SE6       29.64F
HALLOCK        FOG       36  34  93 CALM      29.67F VSB 1/2
ROSEAU         FOG       34  28  80 E6        29.69F VSB<1/4 WCI  29
WARROAD        CLOUDY    34  30  86 E3        29.70F FOG
THIEF RVR FALL SUNNY     42  37  82 E9        29.66F
CROOKSTON      SUNNY     43  37  81 SW6       29.66F
FOSSTON        CLOUDY    46  43  87 SW13      29.65F
DETROIT LAKES  MOSUNNY   45  37  76 SW12      29.67F
MOORHEAD       MOSUNNY   43  37  81 SW9       29.68F
PARK RAPIDS    PTSUNNY   45  33  63 S10       29.66F
MAHNOMEN       FAIR      46  38  74 SW14      29.65S
$$
MNZ006-009>011-018-025>026-212000-
   North Central Minnesota

CITY           SKY/WX    TMP DP  RH WIND       PRES   REMARKS
BAUDETTE       CLOUDY    36  33  89 S7        29.71S
FLAG ISLAND    CLOUDY    32  30  93 CALM      29.70F FOG
INTL FALLS     CLOUDY    39  34  82 E3        29.72F
WASKISH        SUNNY     45  43  93 NE7       29.68F
BIG FORK       SUNNY     46  36  66 SE3       29.70F
LONGVILLE      MOSUNNY   46  34  61 S9        29.68F
GRAND RAPIDS   MOSUNNY   43  34  70 SE7       29.71F
CRANE LAKE     MOSUNNY   39  36  87 S3        29.75F
ORR            SUNNY     43  32  65 CALM      29.70F
COOK           SUNNY     45  36  70 E3        29.72F
WALKER         FAIR      44  33  64 S5        29.66F
$$
MNZ012-019>021-037-212000-
   Northeast Minnesota

CITY           SKY/WX    TMP DP  RH WIND       PRES   REMARKS
DULUTH         MOSUNNY   45  35  68 S8        29.74F
ELY            SUNNY     43  34  70 S8        29.74F
HIBBING        SUNNY     40  36  86 E6        29.72F
EVELETH        SUNNY     42  35  74 SW5       29.74F
DULUTH HARBOR  SUNNY     45  37  76 CALM      29.77F
TWO HARBORS    SUNNY     52  39  62 S3        29.73F
SILVER BAY     SUNNY     52  34  50 SW7       29.73F
GRAND MARAIS     N/A     39  36  89 W13       29.77F
G MARAIS ARPRT MOSUNNY   45  28  53 SW7       29.73F
$$
MNZ029>031-032-039>041-046>048-054>057-064-212000-
   West Central Minnesota

CITY           SKY/WX    TMP DP  RH WIND       PRES   REMARKS
FERGUS FALLS   MOSUNNY   48  39  71 SW7       29.71F
WHEATON        MOSUNNY   54  37  54 SW6       29.70F
MORRIS         CLOUDY    52  43  71 SW6       29.68F
ALEXANDRIA     CLOUDY    51  40  65 SW10      29.69F
ELBOW LAKE     FAIR      50  40  69 W9        29.69F
WADENA         CLOUDY    48  39  71 SW8       29.67F
GLENWOOD       MOSUNNY   52  43  71 S9        29.70F
APPLETON       MOSUNNY   57  43  58 SW10      29.69S
BENSON         MOSUNNY   57  37  47 W8        29.70F
ORTONVILLE     CLOUDY    55  39  54 CALM      29.69F
WILLMAR        FAIR      55  45  67 SW14G20   29.72F
$$
MNZ033>034-036-042>043-049>051-058-059-212000-
   Central Minnesota

CITY           SKY/WX    TMP DP  RH WIND       PRES   REMARKS
ST CLOUD       MOSUNNY   56  43  61 S13       29.72F
SAUK CENTRE    FAIR      51  41  69 S10       29.70F
PAYNESVILLE    PTSUNNY   54  42  64 SW14      29.72F
AITKIN         CLOUDY    50  34  53 S10G22    29.67F
PINE RIVER     MOSUNNY   45  37  76 S7        29.72F
BRAINERD       MOSUNNY   50  37  61 S14G22    29.69F
STAPLES        PTSUNNY   48  37  66 SW6       29.68F
LONG PRAIRIE   FAIR      52  39  62 S12G17    29.70F
LITTLE FALLS   SUNNY     52  37  58 S8        29.70F
LITCHFIELD     MOSUNNY   57  46  67 SW8       29.73F
BUFFALO        SUNNY     57  40  53 S16G25    29.76F
MAPLE LAKE     SUNNY     56  44  64 S9G20     29.75F
HUTCHINSON     SUNNY     59  46  61 SW17G24   29.75F
$$
MNZ037-044-045-052-053-212000-
   East Central Minnesota

CITY           SKY/WX    TMP DP  RH WIND       PRES   REMARKS
PRINCETON      MOSUNNY   54  43  66 SE9       29.74F
MORA           MOSUNNY   37  36  93 SE6       29.77F
CAMBRIDGE      MOSUNNY   52  39  62 SE7       29.74F
RUSH CITY      SUNNY     46  39  76 S7        29.76F
MOOSE LAKE     MOSUNNY   46  36  66 S7        29.73F
HINCKLEY       FAIR      45  41  87 SE7       29.76F
CLOQUET        MOSUNNY   45  36  70 S6        29.74F
MCGREGOR       PTSUNNY   52  36  54 SE10G16   29.70F
$$
MNZ071>073-080-081-089-090-097-098-212000-
   Southwest Minnesota

CITY           SKY/WX    TMP DP  RH WIND       PRES   REMARKS
MONTEVIDEO     PTSUNNY   54  43  66 W13       29.72F
GRANITE FALLS  CLOUDY    56  45  66 SW10      29.74F
CANBY          CLOUDY    56  40  54 SW15G25   29.70F
MARSHALL       CLOUDY    56  41  57 SW18      29.72F
REDWOOD FALLS  MOSUNNY   57  41  55 SW17G32   29.73F
OLIVIA         PTSUNNY   55  45  67 SW15      29.72F
PIPESTONE      SUNNY     57  37  47 SW14      29.75F
WINDOM         MOSUNNY   63  43  48 SW20G32   29.77F
WORTHINGTON    SUNNY     58  44  60 SW21G31   29.78F
JACKSON        MOSUNNY   59  41  51 S22G32    29.80F
TRACY          MOSUNNY   56  44  62 SW20G25   29.75F
SLAYTON        MOSUNNY   56  42  59 SW21      29.76F
$$
MNZ065>067-074>077-082>085-091>093-212000-
   South Central Minnesota

CITY           SKY/WX    TMP DP  RH WIND       PRES   REMARKS
MANKATO          N/A     57  45  64 S18G24    29.78F
NEW ULM        CLOUDY    59  43  55 SW21G26   29.75F
ST JAMES       MOSUNNY   59  45  58 S16G23    29.78F
FAIRMONT       MOSUNNY   60  46  59 S22G32    29.79F
GLENCOE        PTSUNNY   58  49  71 S13G20    29.74F
FARIBAULT      SUNNY     57  45  62 S14G21    29.80F
OWATONNA       SUNNY     57  43  58 S21       29.82F
WASECA         SUNNY     55  45  67 S21G30    29.82F
ALBERT LEA     SUNNY     57  37  47 SW14G20   29.85F
$$
MNZ078>079-086>088-094>096-212000-
   Southeast Minnesota

CITY           SKY/WX    TMP DP  RH WIND       PRES   REMARKS
ROCHESTER      SUNNY     55  43  63 S16       29.87F
RED WING       SUNNY     50  39  66 SE9       29.83F
STANTON        MOSUNNY   60  40  48 S12G21    29.79F
WINONA         SUNNY     54  41  62 E5        29.88F
AUSTIN         SUNNY     54  43  66 S15       29.86F
PRESTON        SUNNY     52  42  68 S10       29.89F
$$
ABBREVIATIONS USED IN REMARKS
   TC - TEMPERATURES IN CELSIUS
  WCI - WIND CHILL INDEX
   HX - HEAT INDEX
  VSB - VISIBILITY
$$




USA.gov is the U.S. government's official web portal to all federal, state and local government web resources and services.